Bled, Slovenia 16 day weather forecast

Slopes altitude range -1 m - -1m

Number of lifts: -1 Pistes: -1km

In some cases the lift and piste totals shown are for the ski domain (e.g. Three Valleys) rather than individual resort (e.g. Courchevel)

Overview

The 16 day weather forecast is fully updated 4 times every day.

    • Sun 26 MAY 2019
    • Sun 26
    • 12C 22C
    • Mon 27 MAY 2019
    • Mon 27
    • 12C 14C
    • Tue 28 MAY 2019
    • Tue 28
    • 10C 13C
    • Wed 29 MAY 2019
    • Wed 29
    • 6C 11C
    • Thu 30 MAY 2019
    • Thu 30
    • 9C 16C
    • Fri 31 MAY 2019
    • Fri 31
    • 12C 22C
    • Sat 01 JUN 2019
    • Sat 01
    • 10C 17C
    • Sun 02 JUN 2019
    • Sun 02
    • 9C 19C
    • Mon 03 JUN 2019
    • Mon 03
    • 9C 17C
    • Tue 04 JUN 2019
    • Tue 04
    • 10C 20C
    • Wed 05 JUN 2019
    • Wed 05
    • 13C 22C
    • Thu 06 JUN 2019
    • Thu 06
    • 13C 21C
    • Fri 07 JUN 2019
    • Fri 07
    • 13C 22C
    • Sat 08 JUN 2019
    • Sat 08
    • 13C 20C
    • Sun 09 JUN 2019
    • Sun 09
    • 14C 22C
    • Mon 10 JUN 2019
    • Mon 10
    • 15C 23C

Date:

Time Type 0°C level Temp Chill Snow Cloud Speed Gust Dir Press
12:00 2947m 22°C 22_2 0cm 86% 2mph 3mph 1014mB
15:00 3082m 21°C 21_3 0cm 89% 3mph 4mph 1013mB
18:00 3108m 21°C 21_3 0cm 94% 3mph 3mph 1013mB
21:00 3087m 10°C 10_2 0cm 99% 2mph 3mph 1015mB
0:00 3100m 10°C 10_2 0cm 99% 2mph 2mph 1014mB
3:00 3088m 10°C 10_1 0cm 99% 1mph 1mph 1013mB
6:00 3094m 10°C 10_1 0cm 99% 1mph 1mph 1012mB
9:00 3178m 12°C 12_2 0cm 97% 2mph 3mph 1011mB
12:00 3170m 14°C 14_3 0cm 98% 3mph 4mph 1011mB
15:00 3143m 14°C 14_3 0cm 100% 3mph 5mph 1009mB
18:00 3044m 14°C 14_2 0cm 99% 2mph 2mph 1008mB
21:00 2940m 10°C 10_2 0cm 100% 2mph 3mph 1008mB
0:00 2948m 9°C 9_1 0cm 96% 1mph 1mph 1007mB
3:00 2939m 9°C 9_1 0cm 98% 1mph 2mph 1005mB
6:00 2920m 9°C 9_1 0cm 97% 1mph 2mph 1005mB
9:00 2872m 10°C 10_3 0cm 90% 3mph 4mph 1005mB
12:00 2899m 13°C 13_5 0cm 88% 5mph 6mph 1004mB
15:00 2861m 14°C 14_4 0cm 90% 4mph 5mph 1004mB
18:00 2710m 15°C 15_3 0cm 92% 3mph 5mph 1006mB
21:00 2404m 8°C 8_3 0cm 100% 3mph 5mph 1008mB
0:00 2196m 7°C 7_3 0cm 100% 3mph 5mph 1009mB
3:00 2157m 6°C 6_4 0cm 100% 4mph 7mph 1009mB
6:00 2151m 6°C 6_3 0cm 100% 3mph 5mph 1011mB
9:00 2233m 6°C 6_4 0cm 99% 4mph 7mph 1013mB
12:00 2213m 11°C 11_2 0cm 99% 2mph 5mph 1014mB
15:00 2250m 12°C 12_4 0cm 100% 4mph 9mph 1014mB
18:00 2331m 12°C 12_3 0cm 100% 3mph 4mph 1016mB
21:00 2346m 7°C 7_4 0cm 100% 4mph 5mph 1019mB
0:00 2327m 6°C 6_3 0cm 99% 3mph 4mph 1020mB
3:00 2301m 5°C 5_3 0cm 83% 3mph 4mph 1020mB
6:00 2288m 5°C 5_3 0cm 88% 3mph 5mph 1021mB
9:00 2291m 9°C 9_5 0cm 77% 5mph 9mph 1022mB
12:00 2446m 16°C 16_6 0cm 80% 6mph 12mph 1021mB
15:00 2556m 17°C 17_6 0cm 65% 6mph 11mph 1021mB
18:00 2565m 17°C 17_3 0cm 41% 3mph 5mph 1022mB
21:00 2534m 6°C 6_2 0cm 0% 2mph 3mph 1024mB
0:00 2556m 5°C 5_3 0cm 0% 3mph 4mph 1024mB
3:00 2658m 4°C 4_3 0cm 1% 3mph 4mph 1023mB
6:00 2763m 4°C 4_2 0cm 37% 2mph 3mph 1022mB
9:00 2797m 12°C 12_1 0cm 79% 1mph 3mph 1021mB
12:00 2824m 22°C 22_3 0cm 73% 3mph 6mph 1020mB
15:00 2938m 18°C 18_4 0cm 56% 4mph 10mph 1020mB
18:00 2997m 18°C 18_4 0cm 30% 4mph 5mph 1020mB
21:00 2766m 10°C 10_4 0cm 71% 4mph 5mph 1023mB
0:00 2549m 8°C 8_4 0cm 70% 4mph 5mph 1025mB
3:00 2497m 5°C 5_4 0cm 24% 4mph 5mph 1026mB
6:00 2389m 5°C 5_5 0cm 12% 5mph 9mph 1027mB
9:00 2215m 10°C 10_7 0cm 0% 7mph 16mph 1027mB
12:00 2438m 17°C 17_10 0cm 0% 10mph 19mph 1026mB
15:00 2458m 17°C 17_12 0cm 0% 12mph 20mph 1025mB
18:00 2309m 17°C 17_6 0cm 0% 6mph 11mph 1027mB
21:00 2313m 5°C 5_4 0cm 0% 4mph 6mph 1029mB
0:00 2411m 3°C 3_4 0cm 0% 4mph 5mph 1030mB
3:00 2561m 2°C 2_3 0cm 0% 3mph 4mph 1030mB
6:00 2625m 2°C 2_4 0cm 0% 4mph 6mph 1028mB
9:00 2497m 9°C 9_6 0cm 0% 6mph 13mph 1027mB
12:00 2685m 19°C 19_9 0cm 0% 9mph 15mph 1025mB
15:00 2769m 19°C 19_11 0cm 0% 11mph 15mph 1024mB
18:00 2691m 19°C 19_5 0cm 0% 5mph 9mph 1025mB
21:00 2736m 3°C 3_6 0cm 0% 6mph 7mph 1028mB
0:00 2781m 3°C 3_6 0cm 1% 6mph 7mph 1027mB
3:00 2752m 2°C 2_6 0cm 3% 6mph 7mph 1026mB
6:00 2689m 2°C 2_6 0cm 9% 6mph 10mph 1025mB
9:00 2770m 9°C 9_8 0cm 17% 8mph 14mph 1023mB
12:00 2985m 17°C 17_8 0cm 19% 8mph 13mph 1021mB
15:00 3047m 17°C 17_8 0cm 26% 8mph 12mph 1020mB
18:00 3086m 17°C 17_5 0cm 14% 5mph 9mph 1021mB
21:00 3058m 6°C 6_5 0cm 1% 5mph 6mph 1023mB
0:00 3079m 4°C 4_5 0cm 7% 5mph 5mph 1022mB
3:00 3102m 3°C 3_5 0cm 39% 5mph 5mph 1022mB
6:00 3179m 3°C 3_3 0cm 26% 3mph 6mph 1021mB
9:00 2940m 10°C 10_2 0cm 0% 2mph 6mph 1019mB
12:00 3199m 20°C 20_3 0cm 0% 3mph 7mph 1018mB
15:00 3250m 20°C 20_4 0cm 27% 4mph 6mph 1017mB
18:00 3119m 20°C 20_3 0cm 29% 3mph 3mph 1018mB
21:00 3229m 7°C 7_3 0cm 23% 3mph 4mph 1020mB
0:00 3364m 5°C 5_3 0cm 25% 3mph 4mph 1020mB
3:00 3351m 4°C 4_4 0cm 2% 4mph 5mph 1019mB
6:00 3360m 4°C 4_2 0cm 5% 2mph 4mph 1019mB
Afternoon 0mm 0.1875 3205m 22°C 22_3 0cm 14% 3mph 4mph 1017mB
Morning 0mm 0.0625 3259m 6°C 6_1 0cm 3% 1mph 2mph 1018mB
Afternoon 0.192708mm 4.25 3386m 21°C 21_3 0cm 24% 3mph 4mph 1015mB
Morning 0.00520833mm 0.0625 3320m 7°C 7_2 0cm 3% 2mph 4mph 1015mB
Afternoon 0.317708mm 5.5 3494m 22°C 22_2 0cm 37% 2mph 3mph 1013mB
Morning 0.0208333mm 0.125 3384m 8°C 8_4 0cm 36% 4mph 6mph 1016mB
Afternoon 0.421875mm 5.4375 3591m 20°C 20_2 0cm 58% 2mph 3mph 1016mB
Morning 0.0520833mm 0.1875 3527m 8°C 8_3 0cm 24% 3mph 4mph 1019mB
Afternoon 1.00521mm 5.25 3673m 22°C 22_1 0cm 59% 1mph 1mph 1017mB
Morning 0.380208mm 0.0625 3664m 8°C 8_1 0cm 59% 1mph 2mph 1017mB
Afternoon 0mm 3 3863m 23°C 23_2 0cm 76% 2mph 3mph 1013mB
Morning 0mm 0.125 3812m 10°C 10_4 0cm 47% 4mph 7mph 1014mB

16 day outlook at a glance

Forecast issued: 26/05/2019 11:01:32

Chat

Your comments and questions. In a resort? Let us know what it's like!


Characters left 250

For terms and conditions see Readers Comments on the Cookie and privacy policy page.